Regional Weather Roundup
Issued by NWS Cleveland, OH

Home | Current Version | Previous Version | Graphics & Text | Print | Product List | Glossary On
Versions: 1 2 3 4 5 6 7 8 9 10 11 12 13 14 15 16 17 18 19 20 21 22 23 24 25 26 27 28 29 30 31 32 33 34 35 36 37 38 39 40 41 42 43 44 45 46 47 48 49 50
000
ASUS41 KCLE 222302
RWRCLE
OHIO REGIONAL WEATHER ROUNDUP
NATIONAL WEATHER SERVICE CLEVELAND, OH
700 PM EDT FRI MAY 22 2015

NOTE: "FAIR" INDICATES FEW OR NO CLOUDS BELOW 12,000 FEET WITH NO
SIGNIFICANT WEATHER AND/OR OBSTRUCTIONS TO VISIBILITY.

OHZ001>008-015>018-024>027-034-035-043-044-230000-
   NORTHWEST OHIO

CITY           SKY/WX    TMP DP  RH WIND       PRES   REMARKS
DEFIANCE       SUNNY     70  33  25 W6        30.23R
FINDLAY        SUNNY     70  31  23 NW9       30.21S
TOLEDO EXPRESS SUNNY     68  29  23 NW9       30.22S
TOLEDO EXEC    SUNNY     69  27  20 N10       30.23S
LIMA           SUNNY     68  32  26 NW10      30.22R
$$

OHZ009>014-019>023-028>033-038-089-230000-
   NORTHEAST OHIO

CITY           SKY/WX    TMP DP  RH WIND       PRES   REMARKS
CLE-HOPKINS    SUNNY     58  34  40 NE10      30.27S
CLE-LAKEFRONT  SUNNY     57  31  37 NE9       30.26S
CUY CO. ARPT   SUNNY     57  30  35 NE12      30.27S
LORAIN-ELYRIA  SUNNY     61  32  33 NE9       30.25R
ASHTABULA      SUNNY     54  20  26 VRB3      30.27S
AKRON-CANTON   MOSUNNY   62  31  31 N8        30.23S
WOOSTER        SUNNY     63  30  28 N14       30.24R
MANSFIELD      SUNNY     64  32  30 N10       30.22S
YOUNGSTOWN     MOSUNNY   57  31  37 N15       30.25R
$$

OHZ042-051>053-060>062-070>072-077>081-230000-
  SOUTHWEST OHIO

CITY           SKY/WX    TMP DP  RH WIND       PRES   REMARKS
CINC-COVINGTON PTSUNNY   71  46  40 W9G20     30.22R
CINC-LUNKEN    PTSUNNY   73  45  36 W12       30.21S
HAMILTON       PTSUNNY   74  47  38 SW7       30.21S
DAYTON         MOSUNNY   73  46  38 NW12      30.21R
WRIGHT-PAT AFB MOSUNNY   71  43  36 NW9       30.19R
DAYTON GENERAL PTSUNNY   73  42  32 NW12      30.20R
WILMINGTON     PTSUNNY   72  42  34 W14       30.20R
$$

OHZ036-037-039>041-045>050-054>059-063>069-073>076-082>088-230000-
  CENTRAL AND SOUTHEAST OHIO

CITY           SKY/WX    TMP DP  RH WIND       PRES   REMARKS
COLUMBUS       PTSUNNY   70  45  40 N12       30.18R
OSU AIRPORT    MOSUNNY   70  43  37 NW13      30.19R
BOLTON FIELD   PTSUNNY   70  45  40 NW14      30.19S
RICKENBACK AFB NOT AVBL
NEWARK         SUNNY     70  44  39 N8        30.19R
MARION         SUNNY     70  28  21 N13       30.21S
LANCASTER      PTSUNNY   69  55  60 CALM      30.19S
ZANESVILLE     MOSUNNY   68  46  45 N5        30.19R
NEW PHILLY     SUNNY     67  31  26 N9        30.22R
$$



USA.gov is the U.S. government's official web portal to all federal, state and local government web resources and services.